This is the latest recevied weather packets stored in our database for station/object W3JGB. If no packets are shown the sender has not sent any weather packets the latest 10 day(s).
| Time | Temp. | Humidity | Pressure | Rain* | Wind** | Luminosity | Snow |
|---|---|---|---|---|---|---|---|
| 1777604114 | 4.44° C | 95% | 1012.8 hPa | 0 mm | - | 0 W/m² | - |
| 1777603811 | 5° C | 94% | 1013.2 hPa | 0 mm | - | 0 W/m² | - |
| 1777603508 | 5° C | 92% | 1013.2 hPa | 0 mm | - | 0 W/m² | - |
| 1777603203 | 5.56° C | 91% | 1013.3 hPa | 0 mm | - | 0 W/m² | - |
| 1777602899 | 5.56° C | 91% | 1013.3 hPa | 0 mm | - | 0 W/m² | - |
| 1777602594 | 6.11° C | 90% | 1013.3 hPa | 0 mm | - | 0 W/m² | - |
| 1777602290 | 6.67° C | 88% | 1013.2 hPa | 0 mm | - | 0 W/m² | - |
| 1777601985 | 6.67° C | 86% | 1013.3 hPa | 0 mm | - | 0 W/m² | - |
| 1777601681 | 7.22° C | 85% | 1013.2 hPa | 0 mm | - | 0 W/m² | - |
| 1777601376 | 7.22° C | 87% | 1013.4 hPa | 0 mm | - | 0 W/m² | - |
| 1777601073 | 7.78° C | 84% | 1013.2 hPa | 0 mm | - | 0 W/m² | - |
| 1777600770 | 7.22° C | 87% | 1013.3 hPa | 0 mm | - | 0 W/m² | - |
| 1777600466 | 7.78° C | 89% | 1013.2 hPa | 0 mm | - | 0 W/m² | - |
| 1777600162 | 7.78° C | 87% | 1013.3 hPa | 0 mm | - | 0 W/m² | - |
| 1777599857 | 7.78° C | 88% | 1013 hPa | 0 mm | - | 0 W/m² | - |
| 1777599554 | 7.78° C | 86% | 1013 hPa | 0 mm | - | 0 W/m² | - |
| 1777599251 | 7.78° C | 88% | 1013.1 hPa | 0 mm | - | 0 W/m² | - |
| 1777598947 | 7.78° C | 87% | 1012.8 hPa | 0 mm | - | 0 W/m² | - |
| 1777598644 | 7.78° C | 86% | 1012.8 hPa | 0 mm | - | 0 W/m² | - |
| 1777598340 | 7.78° C | 87% | 1012.6 hPa | 0 mm | - | 0 W/m² | - |
| 1777598038 | 7.78° C | 86% | 1012.3 hPa | 0 mm | - | 0 W/m² | - |
| 1777597737 | 7.78° C | 84% | 1012.4 hPa | 0 mm | - | 0 W/m² | - |
| 1777597433 | 7.78° C | 86% | 1012.6 hPa | 0 mm | - | 0 W/m² | - |
| 1777597128 | 7.78° C | 82% | 1012.5 hPa | 0 mm | - | 0 W/m² | - |
| 1777596825 | 8.33° C | 83% | 1012.5 hPa | 0 mm | - | 0 W/m² | - |
* Rain latest hour (hover to see other rain measurements)
** Current wind speed in m/s (hover to see current wind gust speed)